SAA356 FACT-FAGG

Flight info

Callsign SAA356
Flight time 0h 36m
Altitude 25000
Route OKTED1C OKTED UQ12 XUGOL UQ56 AXEMU AXEMU1A
Aircraft A320/M-SDE3FGHIRWY/LB1

Departure

Time 2026-04-29 14:34
Airport Cape Town International Airport (FACT)

Arrival

Time 2026-04-29 15:11
Airport George Airport (FAGG)
Time Latitude Longitude Altitude Speed Heading
2026-04-29 14:05 -33.97189 18.59891 157 ft 0 kts 255°
2026-04-29 14:26 -33.97188 18.59895 157 ft 3 kts 254°
2026-04-29 14:26 -33.97177 18.59923 157 ft 4 kts 231°
2026-04-29 14:27 -33.97164 18.59949 157 ft 3 kts 267°
2026-04-29 14:27 -33.97167 18.59974 157 ft 4 kts 335°
2026-04-29 14:27 -33.97185 18.59982 157 ft 1 kts 346°
2026-04-29 14:28 -33.97186 18.59982 157 ft 0 kts 346°
2026-04-29 14:30 -33.97184 18.59981 157 ft 2 kts 346°
2026-04-29 14:30 -33.97130 18.59966 157 ft 12 kts 347°
2026-04-29 14:31 -33.97043 18.59947 157 ft 13 kts 343°
2026-04-29 14:31 -33.96948 18.59915 157 ft 15 kts 347°
2026-04-29 14:31 -33.96840 18.59880 157 ft 17 kts 345°
2026-04-29 14:31 -33.96721 18.59842 157 ft 19 kts 344°
2026-04-29 14:32 -33.96597 18.59805 157 ft 18 kts 346°
2026-04-29 14:32 -33.96479 18.59773 157 ft 16 kts 351°
2026-04-29 14:32 -33.96362 18.59749 157 ft 18 kts 350°
2026-04-29 14:32 -33.96244 18.59728 156 ft 16 kts
2026-04-29 14:33 -33.96152 18.59819 154 ft 16 kts 45°
2026-04-29 14:33 -33.96084 18.59900 154 ft 13 kts 45°
2026-04-29 14:33 -33.96031 18.59994 154 ft 15 kts 88°
2026-04-29 14:33 -33.96118 18.60050 154 ft 23 kts 166°
2026-04-29 14:34 -33.96572 18.60193 159 ft 109 kts 165°
2026-04-29 14:34 -33.97507 18.60490 217 ft 165 kts 165°
2026-04-29 14:34 -33.98637 18.60871 1014 ft 171 kts 165°
2026-04-29 14:34 -33.99807 18.61260 1991 ft 175 kts 165°
2026-04-29 14:35 -34.01061 18.61669 2703 ft 198 kts 165°
2026-04-29 14:35 -34.02373 18.62355 3196 ft 217 kts 139°
2026-04-29 14:35 -34.03231 18.63937 3578 ft 241 kts 107°
2026-04-29 14:35 -34.03672 18.65952 4236 ft 254 kts 104°
2026-04-29 14:36 -34.04099 18.68043 5098 ft 260 kts 103°
2026-04-29 14:36 -34.04529 18.70182 5938 ft 265 kts 103°
2026-04-29 14:36 -34.04971 18.72364 6755 ft 271 kts 103°
2026-04-29 14:36 -34.05426 18.74586 7722 ft 275 kts 103°
2026-04-29 14:37 -34.05891 18.76846 8794 ft 280 kts 102°
2026-04-29 14:37 -34.06366 18.79144 9865 ft 285 kts 102°
2026-04-29 14:37 -34.06854 18.81499 10581 ft 298 kts 102°
2026-04-29 14:37 -34.07372 18.84012 10799 ft 320 kts 102°
2026-04-29 14:38 -34.07921 18.86674 11230 ft 332 kts 102°
2026-04-29 14:38 -34.08487 18.89399 11880 ft 337 kts 103°
2026-04-29 14:38 -34.09057 18.92156 12554 ft 341 kts 103°
2026-04-29 14:38 -34.09632 18.94945 13247 ft 344 kts 103°
2026-04-29 14:39 -34.10212 18.97765 13927 ft 348 kts 103°
2026-04-29 14:39 -34.10798 19.00618 14520 ft 352 kts 103°
2026-04-29 14:39 -34.11390 19.03504 15087 ft 356 kts 103°
2026-04-29 14:39 -34.11989 19.06419 15657 ft 360 kts 103°
2026-04-29 14:40 -34.12592 19.09366 16224 ft 364 kts 103°
2026-04-29 14:40 -34.13199 19.12348 16801 ft 368 kts 103°
2026-04-29 14:40 -34.13812 19.15365 17387 ft 372 kts 103°
2026-04-29 14:40 -34.14433 19.18414 17945 ft 376 kts 103°
2026-04-29 14:41 -34.15063 19.21500 18510 ft 381 kts 103°
2026-04-29 14:41 -34.15698 19.24617 18999 ft 385 kts 103°
2026-04-29 14:41 -34.16342 19.27774 19496 ft 389 kts 103°
2026-04-29 14:41 -34.16985 19.30922 19995 ft 393 kts 103°
2026-04-29 14:42 -34.17640 19.34145 20525 ft 397 kts 103°
2026-04-29 14:42 -34.18297 19.37399 21033 ft 400 kts 103°
2026-04-29 14:42 -34.18958 19.40680 21546 ft 404 kts 103°
2026-04-29 14:42 -34.19623 19.43995 22057 ft 407 kts 103°
2026-04-29 14:43 -34.20301 19.47377 22553 ft 411 kts 103°
2026-04-29 14:43 -34.20970 19.50708 23032 ft 415 kts 103°
2026-04-29 14:43 -34.21622 19.54126 23512 ft 419 kts 99°
2026-04-29 14:43 -34.21853 19.57648 23923 ft 423 kts 88°
2026-04-29 14:44 -34.21637 19.61199 24278 ft 426 kts 84°
2026-04-29 14:44 -34.21383 19.64788 24634 ft 431 kts 84°
2026-04-29 14:44 -34.21138 19.68413 24971 ft 435 kts 84°
2026-04-29 14:44 -34.20899 19.72075 25132 ft 438 kts 84°
2026-04-29 14:45 -34.20664 19.75685 25167 ft 426 kts 84°
2026-04-29 14:45 -34.20426 19.79237 25169 ft 423 kts 84°
2026-04-29 14:45 -34.20183 19.82778 25164 ft 422 kts 84°
2026-04-29 14:45 -34.19936 19.86315 25168 ft 423 kts 84°
2026-04-29 14:46 -34.19685 19.89851 25170 ft 423 kts 83°
2026-04-29 14:46 -34.19435 19.93396 25167 ft 424 kts 83°
2026-04-29 14:46 -34.19186 19.96944 25170 ft 424 kts 83°
2026-04-29 14:46 -34.18936 20.00498 25168 ft 425 kts 83°
2026-04-29 14:47 -34.18684 20.04058 25168 ft 425 kts 83°
2026-04-29 14:47 -34.18434 20.07618 25167 ft 426 kts 83°
2026-04-29 14:47 -34.18183 20.11182 25165 ft 426 kts 83°
2026-04-29 14:47 -34.18015 20.13543 25166 ft 426 kts 83°
2026-04-29 14:48 -34.17677 20.18320 25166 ft 427 kts 85°
2026-04-29 14:48 -34.17685 20.21912 25169 ft 428 kts 91°
2026-04-29 14:48 -34.17784 20.25509 25165 ft 429 kts 91°
2026-04-29 14:48 -34.17882 20.29108 25162 ft 429 kts 90°
2026-04-29 14:49 -34.17976 20.32666 25162 ft 430 kts 90°
2026-04-29 14:49 -34.18072 20.36273 25166 ft 430 kts 90°
2026-04-29 14:49 -34.18167 20.39885 25166 ft 431 kts 90°
2026-04-29 14:49 -34.18258 20.43499 25165 ft 431 kts 90°
2026-04-29 14:50 -34.18347 20.47116 25165 ft 431 kts 90°
2026-04-29 14:50 -34.18433 20.50739 25170 ft 431 kts 90°
2026-04-29 14:50 -34.18523 20.54360 25170 ft 432 kts 90°
2026-04-29 14:50 -34.18614 20.57984 25171 ft 432 kts 90°
2026-04-29 14:51 -34.18703 20.61616 25167 ft 432 kts 90°
2026-04-29 14:51 -34.18791 20.65246 25175 ft 433 kts 90°
2026-04-29 14:51 -34.18876 20.68879 25177 ft 433 kts 90°
2026-04-29 14:51 -34.18960 20.72514 25180 ft 433 kts 90°
2026-04-29 14:52 -34.19042 20.76148 25182 ft 433 kts 90°
2026-04-29 14:52 -34.19122 20.79782 25173 ft 433 kts 90°
2026-04-29 14:52 -34.19203 20.83425 25176 ft 434 kts 90°
2026-04-29 14:52 -34.19284 20.87064 25175 ft 434 kts 90°
2026-04-29 14:53 -34.19364 20.90708 25177 ft 434 kts 90°
2026-04-29 14:53 -34.19442 20.94355 25175 ft 434 kts 90°
2026-04-29 14:53 -34.19517 20.98004 25177 ft 435 kts 90°
2026-04-29 14:53 -34.19591 21.01657 25172 ft 435 kts 90°
2026-04-29 14:54 -34.19664 21.05311 25176 ft 438 kts 90°
2026-04-29 14:54 -34.19736 21.08947 25190 ft 435 kts 90°
2026-04-29 14:54 -34.19810 21.12548 25099 ft 424 kts 90°
2026-04-29 14:54 -34.19884 21.16066 24911 ft 415 kts 90°
2026-04-29 14:55 -34.19953 21.19535 24624 ft 411 kts 90°
2026-04-29 14:55 -34.20017 21.22971 24301 ft 407 kts 90°
2026-04-29 14:55 -34.20081 21.26372 23965 ft 403 kts 90°
2026-04-29 14:55 -34.20147 21.29742 23609 ft 400 kts 90°
2026-04-29 14:56 -34.20209 21.33090 23226 ft 397 kts 90°
2026-04-29 14:56 -34.20266 21.36403 22865 ft 392 kts 90°
2026-04-29 14:56 -34.20248 21.39667 22590 ft 385 kts 83°
2026-04-29 14:56 -34.19780 21.42819 22244 ft 379 kts 74°
2026-04-29 14:57 -34.19161 21.45901 21866 ft 376 kts 74°
2026-04-29 14:57 -34.18757 21.47922 21536 ft 372 kts 74°
2026-04-29 14:57 -34.18158 21.50941 20873 ft 367 kts 74°
2026-04-29 14:57 -34.17567 21.53923 20258 ft 362 kts 75°
2026-04-29 14:58 -34.16984 21.56857 19664 ft 357 kts 75°
2026-04-29 14:58 -34.16410 21.59752 19088 ft 352 kts 75°
2026-04-29 14:58 -34.15845 21.62609 18523 ft 347 kts 75°
2026-04-29 14:58 -34.15288 21.65421 17882 ft 342 kts 75°
2026-04-29 14:59 -34.14558 21.69084 17052 ft 336 kts 75°
2026-04-29 14:59 -34.14190 21.70924 16708 ft 330 kts 75°
2026-04-29 14:59 -34.13666 21.73534 16564 ft 311 kts 75°
2026-04-29 14:59 -34.13162 21.76042 16116 ft 305 kts 75°
2026-04-29 15:00 -34.12664 21.78518 15599 ft 302 kts 75°
2026-04-29 15:00 -34.12141 21.80923 15097 ft 298 kts 72°
2026-04-29 15:00 -34.11553 21.83306 14600 ft 295 kts 71°
2026-04-29 15:00 -34.10939 21.85653 14101 ft 292 kts 70°
2026-04-29 15:01 -34.10322 21.87969 13585 ft 289 kts 70°
2026-04-29 15:01 -34.09715 21.90265 13048 ft 286 kts 71°
2026-04-29 15:01 -34.09119 21.92542 12507 ft 283 kts 71°
2026-04-29 15:01 -34.08534 21.94801 11974 ft 281 kts 71°
2026-04-29 15:02 -34.07958 21.97036 11474 ft 278 kts 71°
2026-04-29 15:02 -34.07387 21.99257 10978 ft 276 kts 71°
2026-04-29 15:02 -34.06823 22.01454 10484 ft 273 kts 71°
2026-04-29 15:02 -34.06262 22.03637 9982 ft 271 kts 71°
2026-04-29 15:03 -34.05706 22.05800 9470 ft 269 kts 71°
2026-04-29 15:03 -34.05156 22.07939 8961 ft 266 kts 71°
2026-04-29 15:03 -34.04611 22.10059 8479 ft 263 kts 71°
2026-04-29 15:03 -34.04071 22.12159 8000 ft 261 kts 71°
2026-04-29 15:04 -34.03538 22.14235 7517 ft 258 kts 71°
2026-04-29 15:04 -34.03008 22.16291 7061 ft 256 kts 71°
2026-04-29 15:04 -34.02480 22.18327 6608 ft 253 kts 70°
2026-04-29 15:04 -34.01962 22.20329 6242 ft 243 kts 70°
2026-04-29 15:05 -34.01489 22.22170 6057 ft 219 kts 70°
2026-04-29 15:05 -34.01049 22.23927 5348 ft 221 kts 75°
2026-04-29 15:05 -34.00584 22.25719 4735 ft 225 kts 56°
2026-04-29 15:05 -33.99475 22.26915 4516 ft 208 kts 21°
2026-04-29 15:06 -33.98106 22.27077 4274 ft 196 kts 345°
2026-04-29 15:06 -33.96981 22.26221 3871 ft 196 kts 307°
2026-04-29 15:06 -33.96552 22.24686 3526 ft 199 kts 269°
2026-04-29 15:06 -33.96869 22.23056 3167 ft 202 kts 250°
2026-04-29 15:07 -33.97665 22.21751 3021 ft 187 kts 211°
2026-04-29 15:07 -33.98808 22.21375 2964 ft 160 kts 177°
2026-04-29 15:07 -33.99830 22.21705 2905 ft 149 kts 149°
2026-04-29 15:07 -34.00585 22.22519 2829 ft 145 kts 123°
2026-04-29 15:08 -34.00956 22.23626 2730 ft 143 kts 98°
2026-04-29 15:08 -34.00958 22.24806 2570 ft 143 kts 88°
2026-04-29 15:08 -34.00921 22.26016 2389 ft 142 kts 88°
2026-04-29 15:08 -34.00885 22.27184 2210 ft 141 kts 89°
2026-04-29 15:09 -34.00849 22.28363 2027 ft 141 kts 88°
2026-04-29 15:09 -34.00813 22.29539 1830 ft 140 kts 89°
2026-04-29 15:09 -34.00777 22.30704 1639 ft 139 kts 89°
2026-04-29 15:09 -34.00741 22.31865 1453 ft 139 kts 89°
2026-04-29 15:10 -34.00705 22.33017 1262 ft 137 kts 89°
2026-04-29 15:10 -34.00669 22.34168 1076 ft 138 kts 89°
2026-04-29 15:10 -34.00630 22.35314 897 ft 137 kts 87°
2026-04-29 15:10 -34.00595 22.36458 701 ft 136 kts 90°
2026-04-29 15:11 -34.00565 22.37504 663 ft 109 kts 88°
2026-04-29 15:11 -34.00545 22.38086 654 ft 37 kts 88°
2026-04-29 15:11 -34.00535 22.38387 651 ft 35 kts 88°
2026-04-29 15:11 -34.00528 22.38632 652 ft 25 kts 88°
2026-04-29 15:12 -34.00520 22.38820 655 ft 19 kts 88°
2026-04-29 15:12 -34.00490 22.38919 657 ft 13 kts 15°
2026-04-29 15:12 -34.00388 22.38914 656 ft 16 kts 355°
2026-04-29 15:12 -34.00308 22.38821 648 ft 19 kts 272°
2026-04-29 15:13 -34.00317 22.38649 647 ft 22 kts 265°
2026-04-29 15:13 -34.00322 22.38471 646 ft 22 kts 268°
2026-04-29 15:13 -34.00327 22.38316 645 ft 16 kts 268°
2026-04-29 15:13 -34.00321 22.38210 645 ft 12 kts 290°
2026-04-29 15:14 -34.00288 22.38129 643 ft 7 kts 303°
2026-04-29 15:14 -34.00253 22.38144 641 ft 9 kts 40°
2026-04-29 15:14 -34.00235 22.38162 644 ft 0 kts 39°